Tracking 31027 objects as of 19-Jul-2025
HD Live streaming from Space Station
objects crossing your sky now

SL-8 R/B

Track SL-8 R/B now!
10-day predictions


NORAD ID: 5707
Int'l Code: 1971-114B
Perigee: 748.2 km
Apogee: 781.4 km
Inclination: 74.0 °
Period: 100.0 minutes
Semi major axis: 7135 km
RCS: 4.239 m2 (large)
Launch date: December 17, 1971
Source: Commonwealth of Independent States (former USSR) (CIS)
Launch site: PLESETSK MISSILE AND SPACE COMPLEX (PKMTR)

Note: This is a ROCKET BODY
Your satellite tracking list
STARLINK-31009
Track 1 satellite(s)




NASA's NSSDC Master Catalog

Two Line Element Set (TLE):
1 05707U 71114B   25199.29037722  .00000215  00000-0  76068-4 0  9990
2 05707  74.0264  34.5599 0023252 102.6381 257.7376 14.40262554807391
Source of the keplerian elements: AFSPC